User: anonymous   Login
Location: NC_16_and_73
(35.4490°N, 81.0150°W)
Time: 02:17:00
(UTC-04:00)
Language:

Cosmos-2242 - Orbit

View from above orbital plane
View from above orbital plane
View from above satellite
View from above satellite

Ground track
Ground track

The orbit data is extracted from the following two-line orbital elements,

1 22626U 93024A   16237.22985753  .00000238  00000-0  23426-4 0  9990
2 22626  82.5243 321.7351 0019791  30.9268 329.3110 14.87504540262008
Epoch (UTC): 24 August 2016 05:30:59
Eccentricity: 0.0019791
inclination: 82.5243°
perigee height: 592 km
apogee height: 619 km
right ascension of ascending node: 321.7351°
argument of perigee: 30.9268°
revolutions per day: 14.87504540
mean anomaly at epoch: 329.3110°
orbit number at epoch: 26200

The dashed part of the orbit path shows where the satellite is in the earth's shadow,  

DLR